CW7500 Weather Reports


Display with metric or nautical units.
time (UTC)temp
F
wind
direction
speed
MPH
gust
MPH
rain 1hr
in
rain 24hr
in
rain mn
in
humidity
%
barometer
mb
20260507210528 62 346 3.0 7.0 0.00 0.17 0.04 26 1004.0
20260507210027 62 111 2.0 6.0 0.00 0.17 0.04 28 1004.0
20260507205528 62 261 3.0 7.0 0.00 0.17 0.04 26 1004.0
20260507205027 62 43 2.0 9.0 0.00 0.17 0.04 28 1003.8
20260507204527 62 130 3.0 8.0 0.00 0.17 0.04 30 1003.9
20260507204028 62 245 4.0 9.0 0.00 0.17 0.04 30 1003.9
20260507203028 62 248 4.0 8.0 0.00 0.17 0.04 28 1003.9
20260507202527 63 50 2.0 5.0 0.00 0.17 0.04 28 1003.9
20260507202027 63 278 3.0 7.0 0.00 0.17 0.04 27 1003.9
20260507201527 63 238 3.0 6.0 0.00 0.17 0.04 29 1003.8
20260507201027 63 266 2.0 9.0 0.00 0.17 0.04 27 1003.8
20260507200527 63 251 4.0 8.0 0.00 0.17 0.04 28 1003.9
20260507200027 63 264 2.0 9.0 0.00 0.17 0.04 27 1003.8
20260507195526 64 251 3.0 5.0 0.00 0.17 0.04 32 1004.0
20260507195028 63 249 3.0 6.0 0.00 0.19 0.04 28 1003.9
20260507194527 64 245 2.0 8.0 0.00 0.19 0.04 26 1004.0
20260507194027 64 277 2.0 5.0 0.00 0.21 0.04 31 1004.1
20260507193527 64 246 3.0 5.0 0.00 0.21 0.04 26 1004.2
20260507192527 63 23 2.0 5.0 0.00 0.21 0.04 26 1004.1
20260507191527 63 188 3.0 6.0 0.00 0.21 0.04 25 1004.3
20260507191027 63 244 3.0 7.0 0.00 0.23 0.04 30 1004.3
20260507190527 64 251 2.0 7.0 0.00 0.23 0.04 25 1004.4
20260507190027 64 249 3.0 7.0 0.00 0.23 0.04 26 1004.4
20260507185526 64 253 2.0 5.0 0.00 0.23 0.04 29 1004.4
20260507185027 63 231 2.0 6.0 0.00 0.23 0.04 31 1004.4
20260507184527 64 248 2.0 6.0 0.00 0.23 0.04 27 1004.5
20260507184027 63 216 1.0 7.0 0.00 0.23 0.04 27 1004.6
20260507183527 63 277 3.0 10.0 0.00 0.23 0.04 29 1004.7
20260507183027 63 243 5.0 8.0 0.00 0.23 0.04 27 1004.7
20260507182527 62 141 2.0 8.0 0.00 0.23 0.04 33 1004.7
20260507182027 63 257 2.0 10.0 0.00 0.23 0.04 29 1004.7
20260507181527 62 22 2.0 8.0 0.00 0.23 0.04 29 1004.8
20260507181026 62 216 2.0 10.0 0.00 0.23 0.04 26 1004.8
20260507180527 62 158 3.0 8.0 0.00 0.23 0.04 29 1004.9
20260507180027 63 267 2.0 7.0 0.00 0.23 0.04 29 1005.2
20260507175526 63 121 3.0 8.0 0.00 0.23 0.04 32 1005.2
20260507175027 64 111 3.0 6.0 0.00 0.23 0.04 29 1005.1
20260507174527 63 64 3.0 6.0 0.00 0.23 0.04 36 1005.0
20260507174027 63 262 2.0 6.0 0.00 0.23 0.04 30 1004.9
20260507173027 62 269 5.0 7.0 0.00 0.23 0.04 32 1005.0
20260507172527 61 21 3.0 8.0 0.00 0.23 0.04 38 1005.0
20260507172026 62 54 2.0 8.0 0.00 0.23 0.04 33 1005.0
20260507171527 61 151 3.0 7.0 0.00 0.23 0.04 43 1005.1
20260507171027 61 248 6.0 8.0 0.00 0.23 0.04 36 1005.1
20260507170527 62 72 2.0 7.0 0.00 0.23 0.04 38 1005.2
20260507170026 61 306 2.0 6.0 0.00 0.23 0.04 38 1005.2
20260507165527 60 171 3.0 6.0 0.00 0.23 0.04 40 1005.2
20260507165027 61 259 5.0 7.0 0.00 0.23 0.04 34 1005.5
20260507164527 61 245 3.0 7.0 0.00 0.23 0.04 35 1005.6
20260507164027 61 202 3.0 7.0 0.00 0.23 0.04 38 1005.5
20260507163526 62 29 2.0 7.0 0.00 0.23 0.04 33 1005.7
20260507163026 61 348 2.0 6.0 0.00 0.23 0.04 43 1005.6
20260507162527 60 222 2.0 7.0 0.00 0.23 0.04 38 1005.6
20260507161527 60 264 5.0 7.0 0.00 0.23 0.04 38 1005.7
20260507161027 60 288 2.0 7.0 0.00 0.23 0.04 37 1005.7
20260507160526 60 321 4.0 8.0 0.00 0.23 0.04 38 1005.7
20260507160027 60 37 5.0 9.0 0.00 0.23 0.04 40 1005.7
20260507155527 60 249 3.0 7.0 0.00 0.23 0.04 39 1005.8
20260507155026 61 304 3.0 8.0 0.00 0.23 0.04 37 1005.8
20260507154527 61 273 2.0 7.0 0.00 0.23 0.04 46 1005.8
20260507154026 61 230 2.0 7.0 0.00 0.23 0.04 38 1005.8
20260507153526 60 190 2.0 5.0 0.00 0.23 0.04 44 1005.8
20260507153026 60 262 3.0 7.0 0.00 0.23 0.04 43 1005.9
20260507151527 60 266 4.0 8.0 0.00 0.23 0.04 43 1005.9
20260507151026 60 265 1.0 6.0 0.00 0.23 0.04 52 1006.1
20260507150026 60 300 1.0 5.0 0.00 0.23 0.04 48 1006.1
20260507145026 59 260 3.0 8.0 0.00 0.23 0.04 50 1006.2
20260507144527 58 209 2.0 8.0 0.00 0.23 0.04 53 1006.2
20260507143527 56 281 3.0 6.0 0.00 0.23 0.04 54 1006.3
20260507143026 56 138 2.0 6.0 0.00 0.23 0.04 63 1006.3
20260507142526 56 257 3.0 7.0 0.00 0.23 0.04 59 1006.6
20260507142026 57 259 2.0 7.0 0.00 0.23 0.04 60 1006.6
20260507140527 56 265 2.0 5.0 0.00 0.23 0.04 62 1006.5
20260507140026 57 256 2.0 5.0 0.00 0.23 0.04 63 1006.5
20260507135026 57 281 1.0 5.0 0.00 0.23 0.04 60 1006.4
20260507134526 57 300 2.0 6.0 0.00 0.23 0.04 61 1006.3
20260507133527 55 10 3.0 5.0 0.00 0.23 0.04 61 1006.5
20260507132526 55 231 3.0 6.0 0.00 0.23 0.04 64 1006.6
20260507132026 55 252 2.0 6.0 0.00 0.23 0.04 67 1006.6
20260507131526 55 252 2.0 3.0 0.00 0.23 0.04 67 1006.6
20260507131026 54 256 2.0 5.0 0.00 0.23 0.04 73 1006.6
20260507130526 54 282 2.0 5.0 0.00 0.23 0.04 74 1006.5
20260507130026 54 95 1.0 2.0 0.00 0.23 0.04 78 1006.6
20260507125526 53 270 1.0 3.0 0.00 0.23 0.04 80 1006.6
20260507125026 53 321 1.0 7.0 0.00 0.23 0.04 86 1006.6
20260507124527 52 321 2.0 5.0 0.00 0.23 0.04 87 1006.6
20260507123526 51 272 2.0 6.0 0.00 0.23 0.04 90 1006.6
20260507122526 50 301 1.0 6.0 0.00 0.23 0.04 96 1006.8
20260507122026 50 246 1.0 2.0 0.00 0.23 0.04 100 1007.0
20260507121525 49 281 1.0 2.0 0.00 0.23 0.04 100 1007.0
20260507121026 48 252 0.0 2.0 0.00 0.23 0.04 100 1006.8
20260507120526 48 310 1.0 2.0 0.00 0.23 0.04 100 1006.6
20260507120026 48 276 1.0 3.0 0.00 0.23 0.04 100 1006.5
20260507115025 48 236 1.0 2.0 0.00 0.23 0.04 100 1006.6
20260507114526 48 238 1.0 2.0 0.00 0.23 0.04 100 1006.6
20260507114025 48 290 0.0 1.0 0.02 0.23 0.04 100 1006.6
20260507113526 47 236 1.0 2.0 0.02 0.23 0.04 100 1006.7
20260507113026 47 275 1.0 2.0 0.02 0.23 0.04 100 1006.6
20260507112525 47 246 1.0 1.0 0.02 0.23 0.04 100 1006.6
20260507112026 47 253 1.0 2.0 0.02 0.23 0.04 100 1006.6
20260507111526 47 268 0.0 1.0 0.02 0.23 0.04 100 1006.5
20260507111026 47 248 0.0 1.0 0.02 0.23 0.04 100 1006.5
20260507110525 47 249 1.0 2.0 0.02 0.23 0.04 100 1006.5
20260507110025 47 258 1.0 1.0 0.02 0.23 0.04 100 1006.5
20260507105526 47 237 1.0 1.0 0.02 0.23 0.04 100 1006.3
20260507105026 47 294 1.0 2.0 0.02 0.23 0.04 100 1006.1
20260507104526 47 333 0.0 1.0 0.02 0.23 0.04 100 1006.1
20260507103526 47 352 0.0 0.0 0.00 0.21 0.02 100 1006.2
20260507103025 47 252 0.0 1.0 0.00 0.21 0.02 100 1006.5
20260507102025 47 112 0.0 1.0 0.00 0.21 0.02 100 1006.6
20260507101525 47 127 1.0 1.0 0.00 0.21 0.02 100 1006.5
20260507101026 47 182 0.0 0.0 0.00 0.21 0.02 100 1006.1
20260507100526 47 197 0.0 0.0 0.00 0.21 0.02 100 1005.9
20260507095025 47 228 0.0 1.0 0.00 0.21 0.02 100 1006.2
20260507094525 47 230 1.0 3.0 0.00 0.21 0.02 100 1005.8
20260507094026 47 270 1.0 2.0 0.00 0.21 0.02 100 1005.8
20260507093525 47 312 2.0 7.0 0.00 0.21 0.02 100 1005.7
20260507092525 47 273 2.0 6.0 0.02 0.21 0.02 100 1005.7
20260507092025 47 266 1.0 7.0 0.02 0.21 0.02 100 1005.7
20260507091525 47 274 2.0 5.0 0.02 0.21 0.02 100 1005.7
20260507090526 47 297 2.0 5.0 0.02 0.21 0.02 100 1005.7
20260507085525 47 274 1.0 2.0 0.02 0.21 0.02 100 1005.9
20260507085026 47 261 1.0 3.0 0.02 0.21 0.02 100 1006.0
20260507084526 47 253 1.0 2.0 0.02 0.21 0.02 99 1006.1
20260507084025 48 279 1.0 5.0 0.02 0.21 0.02 99 1006.1
20260507083025 48 258 1.0 1.0 0.00 0.19 0.00 99 1006.2
20260507082525 48 238 1.0 2.0 0.00 0.19 0.00 98 1006.1
20260507082025 48 258 1.0 2.0 0.00 0.19 0.00 97 1005.8
20260507081525 48 280 1.0 2.0 0.00 0.19 0.00 96 1005.7
20260507081025 48 269 1.0 2.0 0.00 0.19 0.00 95 1005.7
20260507080525 49 258 1.0 3.0 0.00 0.19 0.00 93 1005.7
20260507080025 49 248 1.0 5.0 0.00 0.19 0.00 91 1005.8
20260507075526 49 253 2.0 6.0 0.00 0.19 0.00 90 1006.1
20260507075025 49 287 2.0 6.0 0.00 0.19 0.00 88 1006.0
20260507074526 50 260 2.0 5.0 0.00 0.19 0.00 88 1005.8
20260507074025 50 273 2.0 5.0 0.00 0.19 0.00 88 1005.7
20260507073525 51 333 2.0 8.0 0.00 0.19 0.00 81 1005.5
20260507073026 51 238 3.0 8.0 0.00 0.19 0.00 80 1005.7
20260507072525 51 294 2.0 7.0 0.00 0.19 0.00 81 1005.5
20260507072026 52 298 4.0 8.0 0.00 0.19 0.00 82 1005.5
20260507071525 52 296 3.0 8.0 0.00 0.19 0.00 81 1005.2
20260507071025 52 232 2.0 5.0 0.00 0.19 0.00 84 1004.8
20260507070525 52 269 2.0 3.0 0.00 0.19 0.00 85 1004.8
20260507070025 52 265 2.0 3.0 0.00 0.19 0.00 85 1005.0
20260507065525 53 54 2.0 6.0 0.00 0.19 0.00 87 1004.7
20260507065024 53 236 1.0 2.0 0.00 0.19 0.00 88 1004.8
20260507064525 53 248 2.0 5.0 0.00 0.19 0.00 88 1004.9
20260507064025 53 255 2.0 3.0 0.00 0.19 0.00 88 1004.7
20260507063525 53 293 2.0 3.0 0.00 0.19 0.00 87 1004.8
20260507063025 53 281 1.0 3.0 0.00 0.19 0.00 88 1005.0
20260507062525 53 255 2.0 8.0 0.00 0.19 0.00 86 1005.2
20260507062025 53 260 2.0 6.0 0.00 0.19 0.00 86 1005.2
20260507061025 54 269 2.0 2.0 0.00 0.19 0.00 87 1005.1
20260507060525 54 230 3.0 5.0 0.00 0.19 0.00 86 1005.0
20260507060024 54 259 2.0 5.0 0.00 0.19 0.00 85 1004.9
20260507055525 54 295 3.0 6.0 0.00 0.19 0.00 86 1005.0
20260507055025 54 239 2.0 5.0 0.00 0.19 0.00 86 1005.2
20260507054024 55 273 1.0 6.0 0.00 0.19 0.00 89 1005.2
20260507053525 55 76 2.0 6.0 0.00 0.19 0.00 88 1005.2
20260507053025 55 266 1.0 3.0 0.00 0.19 0.00 91 1005.4
20260507052525 56 236 2.0 6.0 0.00 0.19 0.00 93 1005.7
20260507052025 56 218 2.0 5.0 0.00 0.19 0.00 94 1005.5
20260507051525 56 310 1.0 3.0 0.00 0.19 0.00 94 1005.2
20260507050525 56 237 2.0 3.0 0.00 0.19 0.00 94 1005.2
20260507050025 56 259 1.0 3.0 0.00 0.19 0.00 94 1005.1
20260507045025 56 300 1.0 5.0 0.00 0.19 0.00 94 1005.2
20260507044525 56 258 1.0 3.0 0.00 0.19 0.00 95 1005.2
20260507044025 56 267 1.0 7.0 0.00 0.19 0.00 95 1005.2
20260507043525 56 240 2.0 3.0 0.00 0.19 0.00 96 1005.2
20260507043024 56 239 1.0 3.0 0.00 0.19 0.00 96 1005.0
20260507042524 57 240 2.0 3.0 0.00 0.19 0.00 96 1005.0
20260507042025 57 257 2.0 5.0 0.00 0.19 0.00 95 1004.9
20260507041024 57 279 2.0 5.0 0.00 0.19 0.00 98 1005.2
20260507040525 57 264 3.0 6.0 0.00 0.19 0.00 100 1005.0
20260507040024 57 259 2.0 6.0 0.00 0.19 0.00 100 1005.2
20260507035524 58 243 1.0 2.0 0.00 0.19 0.19 100 1005.2
20260507034524 58 263 1.0 3.0 0.02 0.19 0.19 100 1005.3
20260507034024 58 252 1.0 2.0 0.02 0.19 0.19 100 1005.3
20260507033524 57 255 1.0 3.0 0.02 0.19 0.19 100 1005.2
20260507033025 58 249 1.0 2.0 0.02 0.19 0.19 100 1005.2
20260507032524 57 217 1.0 5.0 0.02 0.19 0.19 100 1005.0
20260507032025 57 224 2.0 5.0 0.02 0.19 0.19 100 1005.0
20260507031524 57 252 2.0 5.0 0.02 0.19 0.19 100 1004.9
20260507031025 57 249 2.0 3.0 0.02 0.19 0.19 100 1004.8
20260507030525 57 229 2.0 5.0 0.02 0.19 0.19 100 1004.8
20260507025025 57 288 1.0 3.0 0.02 0.19 0.19 100 1004.7
20260507024524 57 220 2.0 6.0 0.00 0.17 0.17 100 1004.6
20260507024025 57 252 1.0 6.0 0.00 0.17 0.17 100 1004.6
20260507023524 57 155 2.0 6.0 0.00 0.17 0.17 100 1004.5
20260507023025 57 247 2.0 5.0 0.00 0.17 0.17 100 1004.7
20260507022524 57 232 1.0 2.0 0.00 0.17 0.17 100 1004.7
20260507022025 57 234 2.0 5.0 0.00 0.17 0.17 100 1004.7
20260507021524 57 153 3.0 5.0 0.00 0.17 0.17 100 1004.6
20260507020524 57 269 2.0 5.0 0.02 0.17 0.17 100 1004.7
20260507015525 57 218 1.0 3.0 0.02 0.17 0.17 100 1004.8
20260507015024 57 259 1.0 5.0 0.02 0.17 0.17 100 1004.8
20260507014025 57 200 2.0 5.0 0.02 0.17 0.17 100 1004.6
20260507013524 57 158 1.0 3.0 0.02 0.17 0.17 100 1004.6
20260507013025 57 212 2.0 5.0 0.02 0.17 0.17 100 1004.6
20260507012524 57 209 2.0 6.0 0.02 0.17 0.17 100 1004.6
20260507012024 57 189 1.0 3.0 0.04 0.17 0.17 100 1004.9
20260507011524 57 193 2.0 5.0 0.04 0.17 0.17 100 1004.9
20260507010525 57 231 1.0 6.0 0.02 0.15 0.15 100 1005.0
20260507010024 57 193 2.0 3.0 0.02 0.15 0.15 100 1005.1
20260507005524 57 9 2.0 9.0 0.02 0.15 0.15 100 1004.9
20260507005024 57 171 1.0 3.0 0.02 0.15 0.15 100 1005.0
20260507004025 57 230 1.0 8.0 0.02 0.15 0.15 100 1005.1
20260507003524 57 53 1.0 3.0 0.02 0.15 0.15 100 1005.1
20260507003024 57 251 2.0 6.0 0.02 0.15 0.15 100 1005.2
20260507002524 57 217 3.0 9.0 0.02 0.15 0.15 100 1005.0
20260507002024 57 31 2.0 5.0 0.02 0.13 0.13 100 1004.8
20260507001524 57 203 1.0 3.0 0.02 0.13 0.13 100 1004.8
20260507001024 57 223 2.0 7.0 0.02 0.13 0.13 100 1004.9
20260507000524 57 133 1.0 5.0 0.02 0.13 0.13 100 1004.7
20260507000023 57 175 2.0 6.0 0.02 0.13 0.13 100 1004.7
20260506235524 57 183 2.0 5.0 0.02 0.13 0.13 100 1004.7
20260506235024 57 188 2.0 3.0 0.02 0.13 0.13 100 1004.7
20260506234524 57 214 1.0 5.0 0.02 0.13 0.13 100 1004.7
20260506234024 57 181 2.0 8.0 0.02 0.13 0.13 100 1004.6
20260506233524 57 212 3.0 6.0 0.02 0.13 0.13 100 1004.7
20260506233024 57 207 1.0 6.0 0.02 0.13 0.13 100 1004.6
20260506232524 57 145 3.0 8.0 0.04 0.13 0.13 100 1004.6
20260506231523 57 227 2.0 6.0 0.02 0.11 0.11 100 1004.6
20260506231023 57 184 1.0 6.0 0.02 0.11 0.11 100 1004.5
20260506230524 57 196 2.0 6.0 0.02 0.11 0.11 100 1004.5
20260506225524 57 225 2.0 5.0 0.04 0.11 0.11 100 1004.6
20260506224024 57 36 2.0 3.0 0.04 0.11 0.11 100 1004.7
20260506223024 57 205 2.0 6.0 0.06 0.11 0.11 100 1004.6
20260506222524 57 217 3.0 7.0 0.04 0.10 0.10 100 1004.7
20260506222024 58 228 2.0 5.0 0.04 0.10 0.10 100 1004.7
20260506221024 58 202 2.0 8.0 0.04 0.10 0.10 100 1005.0
20260506220523 58 226 2.0 7.0 0.04 0.10 0.10 100 1005.0
20260506220027 58 185 2.0 5.0 0.02 0.08 0.08 100 1005.1
20260506215523 58 198 2.0 6.0 0.02 0.08 0.08 100 1005.0
20260506215023 58 196 2.0 5.0 0.02 0.08 0.08 100 1005.0
20260506214524 58 110 2.0 3.0 0.02 0.08 0.08 100 1005.0
20260506214024 58 192 2.0 6.0 0.02 0.08 0.08 100 1005.0
20260506213523 58 186 2.0 3.0 0.00 0.06 0.06 100 1005.2
20260506213024 58 206 2.0 3.0 0.00 0.06 0.06 100 1005.3
20260506212524 58 184 2.0 6.0 0.00 0.06 0.06 100 1005.3
20260506212024 59 148 2.0 5.0 0.00 0.06 0.06 99 1005.4
20260506211523 59 169 2.0 7.0 0.00 0.06 0.06 99 1005.4
20260506211024 59 118 2.0 6.0 0.00 0.06 0.06 98 1005.3